Showing default

SURCAL 159, 2872

Orbit data source: Space-Track

SURCAL 159, 2872 is a payload satellite owned by NRL (US) in LEO that was launched on Wed, 31 May 1967 UTC via a THOR SLV-2 AGENA D launch vehicle from the Air Force Western Test Range (AFWTR). Payload-class satellites include a variety of spacecraft equipped with specific instruments for various scientific and technological missions. These include communications satellites like Starlink; space stations such as the ISS; scientific satellites like the Hubble; Earth observation satellites from companies like Planet Labs, Umbra, and HawkEye 360; GPS; miniature CubeSats for education and research; and military/defense satellites.

Loading next visibility...
Identifier
2872, 1967-053F
Orbit
LEO
Country
Flag of USUS
Related business
Manufacturer
NRL
Mission
Operational spacecraft
Bus & Motor
NRL 14"?, Unknown motor
Mass
3 kg wet, 3 kg dry
Launch date (UTC)
1967-05-31 (59 years ago)
Launch vehicle
THOR SLV-2 AGENA D
Launch site
Air Force Western Test Range (AFWTR)
Object type
Payload
Rocket body
Debris
Shape & HBR
Unknown
Radar Cross Section
Medium (>0.1 m² and <1 m²)

Expand to show TLE details & history
Last TLE update: 7 hours ago

TLE from 7 hours ago
0 SURCAL 159
1  2872U 67053F   26128.20777110  .00000080  00000-0  91373-4 0  9999
2  2872  69.9731  86.9162 0006889 190.9054 169.1905 13.99592900  4616
Epoch: 2026-05-08T04:59Z
TLE epoch observation values (Epoch: 2026-05-08T04:59:11.423Z)
Latitude
-0.00001°
Longitude
146.07574°
Altitude
902.442 km
Speed
7.399 km/s
True Right ascension
05h 47m 39s
True Declination
0° 00' 00"
Sunlit
Object was in daylight at epoch
Visualization orbit readout
Latitude
Unknown
Longitude
Unknown
Altitude
Unknown
Speed
Unknown
Apparent Right ascension
Unknown
Apparent Declination
Unknown
Sunlit
N/A
Visualization observer readout
Local Sidereal Time
19:44:45
Azimuth
Unknown
Elevation
Unknown
Doppler factor
Unknown
Orbital elements
Apogee altitude
898.257 km
Perigee altitude
888.238 km
Semi-major axis
7,271.385 km
Eccentricity
0.00069
Inclination
69.9731°
RAAN
86.9162°
Arg. of periapsis
190.9054°
True anomaly
169.20529°
Mean anomaly
169.1905°
Eccentric anomaly
169.1979°
Mean motion
3.5004 °/min
Orbital period
102.85 mins
BSTAR
0.000091373
Loading maneuver chart data...
Computing Atmospheric mass density...
Loading historical data...
Loading historical data...
Loading historical data...
Loading historical data...
Loading historical data...
Loading historical data...
Loading historical data...

Documentation

Showing up to 5 results
|